TimeCST,TemperatureF,Dew PointF,Humidity,Sea Level PressureIn,VisibilityMPH,Wind Direction,Wind SpeedMPH,Gust SpeedMPH,PrecipitationIn,Events,Conditions,WindDirDegrees,DateUTC
12:15 AM,-11.2,-18.4,70,30.14,10.0,South,8.1,-,N/A,,Clear,190,2012-12-10 06:15:00
12:35 AM,-11.2,-16.6,77,30.13,10.0,South,6.9,-,N/A,,Clear,190,2012-12-10 06:35:00
12:55 AM,-9.4,-16.6,71,30.12,10.0,South,8.1,-,N/A,,Clear,190,2012-12-10 06:55:00
1:15 AM,-9.4,-16.6,71,30.11,10.0,South,8.1,-,N/A,,Clear,190,2012-12-10 07:15:00
1:35 AM,-9.4,-14.8,77,30.10,10.0,South,6.9,-,N/A,,Clear,170,2012-12-10 07:35:00
1:55 AM,-9.4,-14.8,77,30.08,10.0,South,9.2,-,N/A,,Clear,180,2012-12-10 07:55:00
2:15 AM,-9.4,-14.8,77,30.07,10.0,South,8.1,-,N/A,,Clear,180,2012-12-10 08:15:00
2:55 AM,-7.6,-13.0,77,30.04,10.0,South,9.2,-,N/A,,Clear,170,2012-12-10 08:55:00
3:15 AM,-7.6,-11.2,84,30.04,10.0,South,10.4,-,N/A,,Mostly Cloudy,170,2012-12-10 09:15:00
3:35 AM,-7.6,-9999,N/A,30.02,10.0,South,9.2,-,N/A,,Mostly Cloudy,180,2012-12-10 09:35:00
3:55 AM,-7.6,-13.0,77,30.01,10.0,South,8.1,-,N/A,,Clear,180,2012-12-10 09:55:00
4:15 AM,-7.6,-13.0,77,30.00,10.0,South,10.4,-,N/A,,Clear,190,2012-12-10 10:15:00
4:35 AM,-7.6,-9999,N/A,29.99,10.0,South,11.5,-,N/A,,Clear,180,2012-12-10 10:35:00
4:55 AM,-7.6,-11.2,84,29.98,10.0,South,8.1,-,N/A,,Clear,180,2012-12-10 10:55:00
5:15 AM,-7.6,-11.2,84,29.97,10.0,SSE,6.9,-,N/A,,Clear,160,2012-12-10 11:15:00
5:35 AM,-5.8,-11.2,77,29.96,10.0,South,9.2,-,N/A,,Clear,170,2012-12-10 11:35:00
6:15 AM,-5.8,-11.2,77,29.93,10.0,SSE,6.9,-,N/A,,Clear,160,2012-12-10 12:15:00
6:35 AM,-7.6,-9999,N/A,29.93,10.0,South,8.1,-,N/A,,Clear,170,2012-12-10 12:35:00
6:55 AM,-7.6,-9999,N/A,29.92,10.0,SSE,9.2,-,N/A,,Clear,160,2012-12-10 12:55:00
7:15 AM,-7.6,-9999,N/A,29.91,10.0,SSE,8.1,-,N/A,,Clear,160,2012-12-10 13:15:00
7:35 AM,-5.8,-11.2,77,29.90,10.0,South,9.2,-,N/A,,Clear,170,2012-12-10 13:35:00
7:55 AM,-5.8,-11.2,77,29.89,10.0,South,12.7,-,N/A,,Clear,170,2012-12-10 13:55:00
8:15 AM,-4.0,-9.4,78,29.89,10.0,South,12.7,-,N/A,,Clear,180,2012-12-10 14:15:00
8:35 AM,-4.0,-9.4,78,29.87,10.0,South,12.7,-,N/A,,Clear,170,2012-12-10 14:35:00
8:55 AM,-4.0,-9.4,78,29.86,10.0,SSE,11.5,-,N/A,,Clear,160,2012-12-10 14:55:00
9:15 AM,-2.2,-7.6,78,29.86,6.0,South,10.4,-,N/A,,Haze,170,2012-12-10 15:15:00
9:35 AM,-2.2,-7.6,78,29.85,10.0,South,12.7,-,N/A,,Clear,170,2012-12-10 15:35:00
10:15 AM,-0.4,-4.0,85,29.84,10.0,South,13.8,18.4,N/A,,Clear,170,2012-12-10 16:15:00
10:35 AM,-0.4,-2.2,92,29.82,10.0,SSE,12.7,-,N/A,,Clear,160,2012-12-10 16:35:00
10:55 AM,3.2,-0.4,85,29.82,10.0,SSE,12.7,21.9,N/A,,Clear,160,2012-12-10 16:55:00
11:15 AM,5.0,-0.4,78,29.81,10.0,South,15.0,-,N/A,,Clear,170,2012-12-10 17:15:00
11:35 AM,5.0,1.4,85,29.79,10.0,South,18.4,-,N/A,,Clear,170,2012-12-10 17:35:00
11:55 AM,6.8,1.4,79,29.78,10.0,South,17.3,-,N/A,,Clear,170,2012-12-10 17:55:00
12:15 PM,6.8,1.4,79,29.76,10.0,South,19.6,24.2,N/A,,Clear,180,2012-12-10 18:15:00
12:35 PM,8.6,1.4,73,29.75,10.0,South,17.3,23.0,N/A,,Clear,180,2012-12-10 18:35:00
12:55 PM,10.4,5.0,79,29.74,10.0,South,17.3,24.2,N/A,,Clear,180,2012-12-10 18:55:00
1:15 PM,10.4,5.0,79,29.74,10.0,South,18.4,21.9,N/A,,Clear,180,2012-12-10 19:15:00
1:35 PM,10.4,5.0,79,29.73,10.0,South,17.3,-,N/A,,Partly Cloudy,180,2012-12-10 19:35:00
1:55 PM,12.2,5.0,73,29.73,10.0,South,15.0,-,N/A,,Partly Cloudy,180,2012-12-10 19:55:00
2:15 PM,14.0,6.8,73,29.72,10.0,South,12.7,-,N/A,,Clear,170,2012-12-10 20:15:00
2:35 PM,14.0,6.8,73,29.72,10.0,South,10.4,-,N/A,,Clear,170,2012-12-10 20:35:00
2:55 PM,15.8,6.8,68,29.71,10.0,South,11.5,-,N/A,,Clear,170,2012-12-10 20:55:00
3:15 PM,15.8,8.6,73,29.70,10.0,South,12.7,-,N/A,,Clear,190,2012-12-10 21:15:00
3:35 PM,17.6,8.6,68,29.71,10.0,SSW,10.4,-,N/A,,Mostly Cloudy,200,2012-12-10 21:35:00
3:55 PM,17.6,8.6,68,29.71,2.5,SSW,12.7,19.6,N/A,Snow,Light Snow,210,2012-12-10 21:55:00
4:15 PM,15.8,10.4,79,29.71,0.8,SSW,12.7,-,0.01,Snow,Light Snow,200,2012-12-10 22:15:00
4:35 PM,15.8,10.4,79,29.70,1.2,South,10.4,-,0.02,Snow,Light Snow,180,2012-12-10 22:35:00
4:55 PM,15.8,10.4,79,29.71,5.0,South,9.2,-,0.02,Snow,Light Snow,190,2012-12-10 22:55:00
5:15 PM,15.8,12.2,86,29.71,3.0,South,9.2,-,N/A,Snow,Light Snow,190,2012-12-10 23:15:00
5:35 PM,15.8,12.2,86,29.71,3.0,South,10.4,-,N/A,Snow,Light Snow,190,2012-12-10 23:35:00
5:55 PM,14.0,10.4,86,29.71,3.0,South,10.4,-,N/A,Snow,Light Snow,190,2012-12-10 23:55:00
6:15 PM,14.0,10.4,86,29.70,5.0,South,9.2,-,N/A,Snow,Light Snow,190,2012-12-11 00:15:00
6:35 PM,14.0,10.4,86,29.70,3.0,SSW,5.8,-,N/A,Snow,Light Snow,200,2012-12-11 00:35:00
6:55 PM,12.2,10.4,92,29.70,9.0,South,6.9,-,N/A,,Overcast,190,2012-12-11 00:55:00
7:15 PM,14.0,10.4,86,29.70,10.0,SSW,5.8,-,N/A,,Overcast,200,2012-12-11 01:15:00
7:35 PM,14.0,10.4,86,29.71,10.0,SSW,4.6,-,N/A,,Overcast,210,2012-12-11 01:35:00
7:55 PM,14.0,10.4,86,29.70,10.0,SW,6.9,-,N/A,,Overcast,220,2012-12-11 01:55:00
8:15 PM,14.0,10.4,86,29.70,10.0,WSW,5.8,-,N/A,,Overcast,250,2012-12-11 02:15:00
8:55 PM,14.0,8.6,79,29.71,10.0,NW,9.2,-,N/A,Snow,Light Snow,310,2012-12-11 02:55:00
9:15 PM,14.0,6.8,73,29.71,10.0,NW,16.1,19.6,N/A,,Overcast,320,2012-12-11 03:15:00
9:35 PM,12.2,5.0,73,29.71,10.0,NW,16.1,19.6,N/A,,Overcast,310,2012-12-11 03:35:00
9:55 PM,10.4,5.0,79,29.72,10.0,NW,12.7,-,N/A,,Mostly Cloudy,320,2012-12-11 03:55:00
10:15 PM,8.6,1.4,73,29.72,10.0,NW,9.2,-,N/A,,Partly Cloudy,320,2012-12-11 04:15:00
10:35 PM,5.0,-0.4,78,29.72,10.0,NW,6.9,-,N/A,,Clear,320,2012-12-11 04:35:00
10:55 PM,5.0,-0.4,78,29.72,10.0,WNW,6.9,-,N/A,,Clear,300,2012-12-11 04:55:00
11:15 PM,6.8,1.4,79,29.72,10.0,NW,10.4,-,N/A,,Clear,310,2012-12-11 05:15:00
11:35 PM,6.8,-0.4,72,29.73,10.0,NW,11.5,-,N/A,,Clear,310,2012-12-11 05:35:00
11:55 PM,5.0,-0.4,78,29.73,10.0,NW,10.4,-,N/A,,Scattered Clouds,320,2012-12-11 05:55:00